Погода Борзя

Погода Борзя : погода сейчас, прогноз погоды и архив. Всё, что Вы хотите узнать о погоде Борзя!

Хотите узнать прогноз погоды Борзя? Тогда Вам сюда: Погода Борзя

Поиск расширенной информации на нашем сайте:

Другие новости

Новости СМИ2

Главная страница сайта

Новости сайта

03.07.2017

Напоминаем, что на нашем специализированном сайте Метеоцентр.Азия вы можете получить высокодетализированные автоматические прогнозы погоды по пунктам России, СНГ и мира в авиационном формате (включающие направление и скорость ветра, видимость, явления погоды, количество и форму облачности, нижнюю и верхнюю границу облачности).


Погода Борзя - сегодня

Время (UTC), дата Ветер
(°,м/с) 
Видим.   Явления Облачность Т
(°С)
Тd
(°С)
f(%) Тe
(°С)
Pmin
(гПа)
dP
(гПа)
Po
(мм)
O2
(г/м3)
Тmin Tmax R s Состояние
почвы
03 17.10.18 260 (З) 20000 м    8/0 верхняя 
[Ci fib]
+6.6 -9.5 31 +8  1026  709  280           
06 17.10.18 280 (З) 20000 м    9/0 верхняя 
[Ci fib]
+10.7 -12.6 18 +11  1023  -1.7  708  275           
09 17.10.18 270 (З) 20000 м    9/0 верхняя 
[Ci sp]
+9.4 -10.5 23 +10  1022.8  -0.5  707  276           
12 17.10.18 080 (В) н/о    ясно 
-4 -10.4 61 -4  1027.8  0.9  708  290    +11.3       
15 17.10.18 060 (СВ) н/о    ясно 
-5.6 -10.1 71 -7  1028.8  0.5  708  292           
18 17.10.18 070 (В) н/о    ясно 
-7.4 -10.1 81 -9  1028.8  -0.6  708  294           
21 17.10.18 080 (В) н/о    ясно 
-7.7 -10.2 82 -9  1029.2  0.2  708  295           
00 18.10.18 100 (В) 20000 м    4/0 верхняя 
[Ci fib]
-4.9 -8.9 74 -6  1028.6  0.3  708  291  -8.5         
03 18.10.18 220 (ЮЗ) 20000 м    9/0 верхняя 
[Ci fib]
+10 -7.9 27 +10  1023.2  0.3  708  276           
06 18.10.18 240 (ЮЗ) 20000 м    9/0 верхняя 
[Ci sp]
+13.8 -9.1 19 +13  1020.9  -1.1  707  272           
09 18.10.18 240 (ЮЗ) 20000 м    9/0 верхняя 
[Ci sp]
+11.2 -7.2 27 +11  1020.9  -0.6  707  274           
12 18.10.18 070 (В) н/о    ясно 
-0.5 -7.4 60 1025.4  0.9  707  286    +13.9       
15 18.10.18 080 (В) н/о    ясно 
-4.6 -8.2 76 -4  1026.7  0.1  707  291           
18 18.10.18 100 (В) н/о    ясно 
-4.8 -8.1 78 -4  1026.4  -0.4  707  291           
21 18.10.18 070 (В) н/о    ясно 
-6.6 -8.7 85 -8  1027.3  0.3  707  293           
00 19.10.18 070 (В) 20000 м    6/0 верхняя 
[Ci fib]
-5 -7.8 81 -5  1027.6  0.8  708  291  -7.7         
03 19.10.18 240 (ЮЗ) 20000 м    6/0 верхняя 
[Ci fib]
+9.9 -5.7 33 +10  1022.1  -0.9  707  275           
06 19.10.18 220 (ЮЗ) 20000 м    9/0 верхняя 
[Ci fib]
+17 -7.9 17 +17  1018.1  -1.9  706  268           
09 19.10.18 240 (ЮЗ) 20000 м    9/0 верхняя 
[Ci fib]
+13.8 -9 20 +14  1018  -0.8  705  271           
15 19.10.18 190 (Ю) н/о    8/0 верхняя 
[Ci fib]
+4.7 -12.6 27 +4  1021.2  0.4  705  280           
18 19.10.18 070 (В) н/о    6/0 верхняя 
[Ci fib]
-7.9 -11 78 -8  1025.1  0.1  705  294           
21 19.10.18 070 (В) н/о    4/0 верхняя 
[Ci fib]
-9.1 -11.8 81 -11  1024.6  -0.8  705  295           
00 20.10.18 090 (В) 20000 м    3/0 верхняя 
[Ci fib]
-6.1 -10.3 72 -8  1023.5  0.1  705  291  -9.6         
03 20.10.18 290 (З) 20000 м    5/0 верхняя 
[Ci sp]
+10.5 -8.3 26 +12  1016.8  -1.5  704  274           
06 20.10.18 220 (ЮЗ) 4{11}  20000 м    4/0 верхняя 
[Ci fib]
+14.8 -10.3 17 +15  1013.4  -2.1  702  269           
Время (UTC), дата Ветер
(°,м/с) 
Видим.   Явления Облачность Т
(°С)
Тd
(°С)
f(%) Тe
(°С)
Pmin
(гПа)
dP
(гПа)
Po
(мм)
O2
(г/м3)
Тmin Tmax R s Состояние
почвы

Для получения пояснительной информации подведите курсор к названию столбца.

ПОГОДА Борзя - архив

Всё, что Вы хотите узнать о погоде Борзя - удобно и подробно!

Выберите нужную дату (начиная с 1 января 2015* года) и нажмите кнопку "Найти".
Будут отображены архивные сводки погоды по пункту Борзя, начиная с указанной даты.


Отображать данные в формате CSV (для использования в таблицах Excel)


Внимание! Наш архив погоды предназначен исключительно для личного некоммерческого использования в познавательных целях. Если Вам необходимы официальные справки о состоянии погоды (для производственных, юридических, коммерческих и т.п. целей), обращайтесь в органы Росгидромета.

*Примечание: данная дата относится к архиву по метеостанциям СССР (Россия, СНГ, Балтия).
Архив по метеостанциям Зарубежной Европы и Азии (кроме Китая) хранится 10 дней, по другим регионам земного шара (Китай, Африка, Америка, Австралия, Океания) - 1 день.

Борзя - район местоположения метеостанции


Название, широта, долгота, высота метеостанции:
Борзя 50.4°ш. 116.5°д. 676 м над ур. моря [Российская Федерация]

Дополнительная информация

В oтличие oт бoльшинства пoгoдных сайтoв мы публикуем пoдрoбную метеoинфoрмацию в детальнoм прoфессиoнальнoм фoрмате.

Характеристики температуры и влажнoсти вoздуха измеряются на высoте 2 м в тени вдали oт зданий и деревьев.
Скoрoсть ветра измеряется на высoте 10 м (на урoвне рoста челoвека скoрoсть ветра ниже в 1.5-2 раза). Если метеoстанция нахoдится в гoрoде или в лесу, тo скoрoсть ветра занижена на 2-4 м/с пo сравнению с oткрытым местoм. Скoрoсть ветра над акватoриями крупных рек и oзёр, а также на вершинах хoлмoв на 2-5 м/с выше, чем в oбычных услoвиях.
Атмoсфернoе давление в разных тoчках местнoсти мoжет значительнo oтличаться oт давления на метеoстанции, в зависимoсти oт услoвий рельефа (при пoдъёме на 10 м давление пoнижается примернo на 1 мм рт.ст.).